Le nostre stazioni meteo in Italia

Pubblicità
Il mio iltempo24.it
Besancon, Francia (7288): Temperatura & dewpoint: 14.10.2017 09:00:00 - 20.10.2017 09:00:00 (CEST)Besancon, Francia (7288): Temperatura 5cm: 14.10.2017 09:00:00 - 20.10.2017 09:00:00 (CEST)Besancon, Francia (7288): Temperatura -20cm & Temperatura -100cm: 14.10.2017 09:00:00 - 20.10.2017 09:00:00 (CEST)Besancon, Francia (7288): velocità del vento & gusts: 14.10.2017 09:00:00 - 20.10.2017 09:00:00 (CEST)Besancon, Francia (7288): direzione del vento: 14.10.2017 09:00:00 - 20.10.2017 09:00:00 (CEST)Besancon, Francia (7288): reduced air pressure: 14.10.2017 09:00:00 - 20.10.2017 09:00:00 (CEST)Besancon, Francia (7288): visibility: 14.10.2017 09:00:00 - 20.10.2017 09:00:00 (CEST)Besancon, Francia (7288): ore di luce: 14.10.2017 09:00:00 - 20.10.2017 09:00:00 (CEST)Besancon, Francia (7288): precipitazioni: 14.10.2017 09:00:00 - 20.10.2017 09:00:00 (CEST)
Data & Tempo tt [°C] td [°C] tt 5cm [°C] tt -20cm [°C] tt -100cm [°C] ff [km/h] ff [kn] fx [km/h] fx [kn] dd ppp [hPa] vv [km] sd [min] rr [mm]
20.10.2017 09:00:00 - - - - - - - - - - - - - -
20.10.2017 08:00:00 15,9 7,1 12,4 14,5 15,3 5 3 16 9 SSO 1013,9 15 0 0,0
20.10.2017 07:00:00 17,2 7,0 13,2 14,5 15,3 8 4 23 13 SSO 1013,8 10 0 0,0
20.10.2017 06:00:00 15,1 7,6 12,3 14,6 15,3 3 2 10 6 SSO 1013,9 10 0 0,0
20.10.2017 05:00:00 14,6 7,6 12,0 14,6 15,3 0 0 5 3 N 1013,7 - 0 0,0
20.10.2017 04:00:00 13,8 7,6 11,0 14,7 15,3 0 0 5 3 N 1013,8 - 0 0,0
20.10.2017 03:00:00 12,0 8,3 9,3 14,7 15,3 2 1 6 3 N 1014,2 - 0 0,0
20.10.2017 02:00:00 11,2 7,9 7,0 14,8 15,3 0 0 4 2 N 1014,2 - 0 0,0
20.10.2017 01:00:00 11,1 8,3 7,2 14,8 15,3 3 1 5 3 NNE 1013,7 - 0 0,0
20.10.2017 00:00:00 11,7 8,5 7,4 14,8 15,3 0 0 4 2 N 1013,8 - 0 0,0
19.10.2017 23:00:00 12,6 9,1 9,5 14,8 15,3 0 0 5 3 N 1013,7 - 0 0,0
19.10.2017 22:00:00 13,0 9,6 8,7 14,8 15,3 0 0 5 3 N 1013,5 - 0 0,0
19.10.2017 21:00:00 13,7 10,5 9,1 14,8 15,4 0 0 3 2 N 1013,1 - 0 0,0
19.10.2017 20:00:00 15,6 10,4 11,2 14,7 15,3 0 0 4 2 N 1012,8 - 0 0,0
19.10.2017 19:00:00 16,9 10,7 14,2 14,7 15,3 2 1 4 2 NNE 1012,3 - 2 0,0
19.10.2017 18:00:00 17,9 10,8 15,7 14,5 15,3 0 0 3 2 N 1012,1 - 0 0,0
19.10.2017 17:00:00 18,8 9,6 17,6 14,4 15,4 0 0 6 3 N 1011,7 20 0 0,0
19.10.2017 16:00:00 19,8 9,4 19,1 14,3 15,3 2 1 10 5 NNO 1011,8 20 5 0,0
19.10.2017 15:00:00 22,1 8,2 26,3 14,2 15,3 3 2 10 5 O 1011,9 20 34 0,0
19.10.2017 14:00:00 21,9 8,7 27,9 14,1 15,4 0 0 6 4 N 1012,2 20 49 0,0
19.10.2017 13:00:00 20,2 7,5 23,5 14,1 15,3 0 0 6 3 N 1013,2 20 34 0,0
19.10.2017 12:00:00 17,7 9,1 18,7 14,1 15,3 0 0 3 1 N 1014,1 20 5 0,0
19.10.2017 11:00:00 14,6 9,8 14,4 14,1 15,3 0 0 5 3 N 1014,3 20 1 0,0
19.10.2017 10:00:00 12,7 9,1 10,6 14,2 15,4 3 2 5 3 N 1014,5 - 0 0,0
19.10.2017 09:00:00 11,3 8,5 8,6 14,2 15,3 0 0 6 3 N 1014,5 - 0 0,0
19.10.2017 08:00:00 10,3 8,2 6,7 14,3 15,3 3 1 6 4 N 1014,1 20 0 0,0
19.10.2017 07:00:00 9,7 8,5 6,1 14,3 15,3 0 0 5 3 N 1014,0 - 0 0,0
19.10.2017 06:00:00 10,0 8,3 6,5 14,4 15,3 0 0 5 3 N 1014,1 20 0 0,0
19.10.2017 05:00:00 10,5 8,4 7,0 14,5 15,4 0 0 3 1 N 1014,1 - 0 0,0
19.10.2017 04:00:00 10,9 8,8 6,9 14,5 15,4 0 0 4 2 N 1014,1 - 0 0,0
19.10.2017 03:00:00 11,7 8,9 8,3 14,5 15,4 3 1 6 3 NNE 1014,2 - 0 0,0
19.10.2017 02:00:00 11,5 8,9 8,4 14,6 15,4 2 1 6 3 N 1014,2 - 0 0,0
19.10.2017 01:00:00 12,5 9,3 9,0 14,6 15,4 3 1 5 3 NNE 1014,4 - 0 0,0
19.10.2017 00:00:00 11,7 9,3 8,1 14,7 15,4 3 1 6 3 NNE 1014,8 - 0 0,0
18.10.2017 23:00:00 11,8 9,2 7,7 14,7 15,4 3 2 5 3 NNE 1014,7 - 0 0,0
18.10.2017 22:00:00 12,1 9,7 7,6 14,7 15,4 2 1 5 3 NNE 1014,5 - 0 0,0
18.10.2017 21:00:00 13,2 10,0 8,2 14,6 15,4 2 1 5 3 NNE 1014,0 - 0 0,0
18.10.2017 20:00:00 14,3 10,3 9,0 14,6 15,4 3 1 5 3 NNE 1014,0 - 0 0,0
18.10.2017 19:00:00 16,7 10,5 10,9 14,5 15,4 2 1 4 2 N 1013,5 - 22 0,0
18.10.2017 18:00:00 19,4 10,4 16,7 14,4 15,4 0 0 16 9 N 1013,0 - 35 0,0
18.10.2017 17:00:00 21,9 8,7 23,1 14,2 15,4 8 4 23 12 SSO 1013,0 20 60 0,0
18.10.2017 16:00:00 22,5 8,6 24,2 14,1 15,4 8 4 18 10 OSO 1013,2 20 60 0,0
18.10.2017 15:00:00 22,1 8,9 26,2 14,0 15,4 9 5 23 12 SO 1013,6 20 60 0,0
18.10.2017 14:00:00 21,5 8,0 27,3 13,9 15,4 10 5 27 15 SO 1014,3 - 60 0,0
18.10.2017 13:00:00 20,7 7,0 26,5 13,9 15,4 13 7 24 13 SSO 1015,3 - 60 0,0
18.10.2017 12:00:00 20,1 6,8 26,5 13,9 15,4 10 5 24 13 SO 1015,8 20 60 0,0
18.10.2017 11:00:00 18,8 7,9 16,5 14,0 15,4 0 0 10 5 N 1016,1 20 60 0,0
18.10.2017 10:00:00 13,8 8,6 6,7 14,1 15,4 0 0 6 4 N 1017,0 20 60 0,0
18.10.2017 09:00:00 9,9 7,1 5,0 14,2 15,4 0 0 6 4 N 1017,6 - 17 0,0
18.10.2017 08:00:00 10,1 7,5 4,7 14,3 15,4 0 0 6 3 N 1017,5 15 0 0,0
18.10.2017 07:00:00 9,7 7,5 4,0 14,4 15,4 3 2 9 5 SSO 1018,0 - 0 0,0
18.10.2017 06:00:00 7,7 6,8 3,7 14,4 15,4 0 0 8 4 N 1018,7 15 0 0,0
18.10.2017 05:00:00 8,6 6,9 4,2 14,6 15,4 0 0 3 2 N 1018,8 - 0 0,0
18.10.2017 04:00:00 7,8 6,4 4,1 14,6 15,4 2 1 5 3 NNE 1019,1 - 0 0,0
18.10.2017 03:00:00 8,0 6,8 4,1 14,7 15,4 0 0 3 2 N 1019,4 - 0 0,0
18.10.2017 02:00:00 8,8 6,9 5,0 14,8 15,4 0 0 4 2 N 1019,4 - 0 0,0
18.10.2017 01:00:00 10,1 8,0 5,3 14,8 15,4 0 0 6 3 N 1019,2 - 0 0,0
18.10.2017 00:00:00 10,7 8,5 5,5 14,9 15,4 0 0 6 4 N 1019,4 - 0 0,0
17.10.2017 23:00:00 10,7 8,3 6,2 14,9 15,4 4 2 6 3 N 1019,4 - 0 0,0
17.10.2017 22:00:00 11,8 8,8 7,2 14,9 15,4 4 2 8 5 NNE 1019,1 - 0 0,0
17.10.2017 21:00:00 13,2 9,3 7,9 14,8 15,4 0 0 4 2 N 1019,1 - 0 0,0
17.10.2017 20:00:00 15,2 9,3 9,2 14,8 15,4 0 0 4 2 N 1019,0 - 0 0,0
17.10.2017 19:00:00 17,8 9,7 11,4 14,7 15,4 0 0 7 4 N 1018,5 - 25 0,0
17.10.2017 18:00:00 22,0 8,8 21,3 14,5 15,4 0 0 6 3 N 1018,3 - 54 0,0
17.10.2017 17:00:00 23,1 7,6 27,2 14,4 15,4 2 1 9 5 NNO 1018,7 - 60 0,0
17.10.2017 16:00:00 23,2 8,1 25,5 14,3 15,4 3 2 10 5 NO 1019,0 30 60 0,0
17.10.2017 15:00:00 23,0 6,7 27,8 14,2 15,4 6 3 16 8 OSO 1020,0 - 60 0,0
17.10.2017 14:00:00 22,2 6,8 29,1 14,1 15,4 7 4 15 8 SSO 1021,1 25 60 0,0
17.10.2017 13:00:00 20,9 6,0 30,7 14,1 15,4 0 0 5 3 N 1022,1 25 60 0,0
17.10.2017 12:00:00 18,2 5,7 26,3 14,1 15,4 0 0 4 2 N 1022,9 20 60 0,0
17.10.2017 11:00:00 15,3 6,8 14,6 14,2 15,4 0 0 4 2 N 1023,9 20 60 0,0
17.10.2017 10:00:00 10,2 6,5 5,8 14,3 15,4 0 0 3 2 N 1025,0 - 60 0,0
17.10.2017 09:00:00 7,4 6,2 3,4 14,4 15,4 0 0 0 0 N 1025,5 - 18 0,0
17.10.2017 08:00:00 7,4 5,7 3,4 14,5 15,5 0 0 6 3 N 1025,3 20 0 0,0
17.10.2017 07:00:00 7,2 6,0 3,5 14,6 15,4 0 0 4 2 N 1025,2 20 0 0,0
17.10.2017 06:00:00 7,7 6,6 3,7 14,7 15,4 0 0 4 2 N 1025,3 20 0 0,0
17.10.2017 05:00:00 8,5 7,1 4,6 14,8 15,4 0 0 7 4 N 1025,4 - 0 0,0
17.10.2017 04:00:00 8,5 7,3 4,5 14,9 15,5 0 0 5 3 N 1025,8 - 0 0,0
17.10.2017 03:00:00 9,4 8,2 4,9 14,9 15,4 0 0 5 3 N 1025,8 - 0 0,0
17.10.2017 02:00:00 10,1 8,4 5,6 15,0 15,5 0 0 6 4 N 1025,7 - 0 0,0
17.10.2017 01:00:00 10,8 9,1 6,2 15,1 15,5 0 0 5 3 N 1025,5 - 0 0,0
17.10.2017 00:00:00 11,5 8,9 6,5 15,1 15,5 0 0 5 3 N 1025,4 - 0 0,0
16.10.2017 23:00:00 12,0 10,1 6,6 15,1 15,4 3 2 6 4 NNE 1025,4 - 0 0,0
16.10.2017 22:00:00 12,7 10,8 7,8 15,1 15,5 4 2 7 4 NNE 1024,8 - 0 0,0
16.10.2017 21:00:00 13,3 10,5 7,8 15,1 15,5 0 0 4 2 N 1024,9 - 0 0,0
16.10.2017 20:00:00 15,4 11,0 9,4 15,0 15,5 2 1 6 3 NNE 1024,6 - 0 0,0
16.10.2017 19:00:00 19,4 10,1 11,8 14,8 15,5 0 0 4 2 N 1023,7 - 32 0,0
16.10.2017 18:00:00 24,7 9,8 24,9 14,7 15,4 2 1 8 4 O 1022,7 - 54 0,0
16.10.2017 17:00:00 26,1 8,6 28,3 14,5 15,4 4 2 10 6 OSO 1022,6 30 60 0,0
16.10.2017 16:00:00 26,0 9,8 28,6 14,4 15,4 5 3 14 8 SO 1022,9 30 60 0,0
16.10.2017 15:00:00 25,6 9,8 31,4 14,2 15,5 3 2 14 8 OSO 1023,3 30 60 0,0
16.10.2017 14:00:00 24,4 10,3 33,1 14,2 15,5 5 3 12 6 SO 1024,0 25 60 0,0
16.10.2017 13:00:00 23,6 7,6 34,2 14,1 15,5 3 2 9 5 SSO 1024,6 25 60 0,0
16.10.2017 12:00:00 20,1 10,2 29,2 14,2 15,5 0 0 2 1 N 1025,3 25 60 0,0
16.10.2017 11:00:00 16,6 9,8 16,4 14,2 15,4 0 0 3 2 N 1025,8 25 60 0,0
16.10.2017 10:00:00 11,3 8,5 6,6 14,4 15,5 0 0 3 2 N 1026,6 25 60 0,0
16.10.2017 09:00:00 8,5 7,6 4,1 14,4 15,5 2 1 4 2 N 1026,7 20 20 0,0
16.10.2017 08:00:00 7,9 7,1 4,0 14,5 15,5 0 0 3 2 N 1026,5 15 0 0,0
16.10.2017 07:00:00 8,5 7,6 4,2 14,6 15,5 0 0 3 2 N 1026,6 10 0 0,0
16.10.2017 06:00:00 9,1 7,9 4,7 14,7 15,5 0 0 4 2 N 1026,6 10 0 0,0
16.10.2017 05:00:00 9,5 8,6 5,5 14,7 15,5 0 0 5 3 N 1026,4 - 0 0,0
16.10.2017 04:00:00 9,5 8,6 5,2 14,8 15,5 0 0 6 4 N 1026,8 - 0 0,0
16.10.2017 03:00:00 9,6 8,4 5,5 14,9 15,5 0 0 4 2 N 1027,0 - 0 0,0
16.10.2017 02:00:00 10,8 9,6 6,3 15,0 15,5 0 0 7 4 N 1026,9 - 0 0,0
16.10.2017 01:00:00 11,2 9,8 7,1 15,0 15,5 0 0 6 4 N 1026,7 - 0 0,0
16.10.2017 00:00:00 12,2 10,9 7,6 15,0 15,5 2 1 7 4 NNE 1026,7 - 0 0,0
15.10.2017 23:00:00 12,4 11,5 7,9 15,0 15,5 4 2 7 4 NNE 1026,4 - 0 0,0
15.10.2017 22:00:00 12,6 11,3 8,1 15,0 15,5 2 1 7 4 NNE 1026,3 - 0 0,0
15.10.2017 21:00:00 14,1 11,8 9,2 15,0 15,5 3 2 7 4 NNE 1026,0 - 0 0,0
15.10.2017 20:00:00 15,7 12,1 10,5 14,9 15,5 2 1 4 2 NNE 1025,7 - 0 0,0
15.10.2017 19:00:00 18,9 12,2 13,2 14,8 15,5 0 0 9 5 N 1024,8 - 30 0,0
15.10.2017 18:00:00 22,4 11,8 22,8 14,6 15,5 4 2 16 8 SSO 1024,0 - 54 0,0
15.10.2017 17:00:00 23,4 11,4 24,7 14,5 15,5 10 5 22 12 SO 1023,8 20 60 0,0
15.10.2017 16:00:00 23,8 11,8 25,3 14,3 15,5 4 2 16 9 SSO 1024,2 - 60 0,0
15.10.2017 15:00:00 23,2 10,6 29,2 14,2 15,5 4 2 14 8 OSO 1024,6 20 60 0,0
15.10.2017 14:00:00 21,6 9,8 29,4 14,1 15,5 6 3 14 7 SSO 1025,3 20 60 0,0
15.10.2017 13:00:00 20,4 9,9 29,5 14,1 15,5 5 3 16 8 SO 1026,0 - 60 0,0
15.10.2017 12:00:00 18,3 9,9 27,9 14,1 15,5 0 0 6 3 N 1026,7 20 60 0,0
15.10.2017 11:00:00 14,3 10,9 16,4 14,2 15,5 0 0 4 2 N 1027,3 20 60 0,0
15.10.2017 10:00:00 10,1 9,9 5,7 14,3 15,5 0 0 3 2 N 1027,9 20 60 0,0
15.10.2017 09:00:00 8,0 7,7 4,4 14,4 15,5 0 0 0 0 N 1028,0 - 21 0,0
15.10.2017 08:00:00 8,0 7,9 3,6 14,5 15,5 0 0 2 1 N 1027,5 20 0 0,0
15.10.2017 07:00:00 8,4 8,1 4,4 14,6 15,5 0 0 4 2 N 1027,1 20 0 0,0
15.10.2017 06:00:00 8,8 8,5 4,8 14,7 15,5 0 0 4 2 N 1027,3 20 0 0,0
15.10.2017 05:00:00 9,2 8,7 5,1 14,8 15,5 0 0 6 4 N 1027,1 - 0 0,0
15.10.2017 04:00:00 9,6 9,5 5,1 14,8 15,5 2 1 5 3 NNE 1027,2 - 0 0,0
15.10.2017 03:00:00 9,4 8,9 5,6 14,9 15,5 0 0 5 3 N 1027,7 - 0 0,0
15.10.2017 02:00:00 10,5 10,0 6,4 15,0 15,5 3 1 7 4 NNE 1027,6 - 0 0,0
15.10.2017 01:00:00 10,8 10,3 6,7 15,0 15,5 0 0 3 2 N 1027,6 - 0 0,0
15.10.2017 00:00:00 11,5 11,0 7,1 15,1 15,5 2 1 5 3 NNE 1027,3 - 0 0,0
14.10.2017 23:00:00 11,7 11,1 7,0 15,1 15,6 2 1 4 2 NNE 1027,3 - 0 0,0
14.10.2017 22:00:00 12,0 10,9 7,4 15,0 15,5 0 0 6 4 N 1027,3 - 0 0,0
14.10.2017 21:00:00 13,2 11,6 8,5 15,0 15,5 0 0 4 2 N 1027,3 - 0 0,0
14.10.2017 20:00:00 14,7 12,4 9,9 14,9 15,5 0 0 5 3 N 1026,8 - 0 0,0
14.10.2017 19:00:00 17,3 12,0 11,9 14,8 15,5 0 0 3 2 N 1026,1 - 35 0,0
14.10.2017 18:00:00 20,7 11,3 23,5 14,6 15,5 0 0 6 4 N 1025,7 - 55 0,0
14.10.2017 17:00:00 22,2 12,4 26,3 14,4 15,5 0 0 9 5 N 1025,6 - 60 0,0
14.10.2017 16:00:00 21,5 12,3 25,3 14,3 15,5 2 1 8 5 ONO 1025,8 20 60 0,0
14.10.2017 15:00:00 20,8 12,5 27,3 14,2 15,5 5 3 15 8 NO 1026,3 - 60 0,0
14.10.2017 14:00:00 20,3 12,0 31,3 14,1 15,5 4 2 9 5 O 1026,7 20 60 0,0
14.10.2017 13:00:00 19,4 11,4 29,3 14,1 15,5 2 1 6 3 O 1027,4 - 60 0,0
14.10.2017 12:00:00 17,4 10,5 27,3 14,1 15,5 0 0 4 2 N 1028,0 20 60 0,0
14.10.2017 11:00:00 13,8 11,3 16,0 14,2 15,5 2 1 5 3 N 1028,4 - 60 0,0
14.10.2017 10:00:00 10,5 10,5 5,8 14,3 15,5 2 1 3 2 N 1028,8 20 60 0,0
14.10.2017 09:00:00 7,8 7,7 4,3 14,4 15,6 0 0 0 0 N 1028,9 - 20 0,0

tt = Temperatura
td = dewpoint
tt 5cm = Temperatura 5cm
tt -20cm = Temperatura -20cm
tt -100cm = Temperatura -100cm
ff = velocità del vento
fx = gusts
dd = direzione del vento
ppp = reduced air pressure
vv = visibility
sd = ore di luce
rr = precipitazioni

Stazioni seguenti

WeatherPro
AMSI
MeteoEarth